Temp
10 10 9 8 7 6 6 6 5 5 5 4 3 3 2 2 2 2 3 2 2 2 3 3 3 3 3 3 4 4 4 4 4 5 6 7 8 9 9 10 11 11 11
9 8 7 6 6 6 5 5 5 4 4 3 2 2 2 2 2 2 2 3 3 3 3 3 3 3 3 3 3 3 3 3 4 4 5 6 7 8 9 9 10 11 11
7 7 6 6 6 5 5 4 4 3 3 2 2 2 2 2 2 2 3 3 3 4 3 3 3 3 3 3 3 3 3 3 3 3 4 5 6 6 7 7 9 10 11
7 6 6 5 5 4 4 3 3 2 2 2 2 2 2 2 3 3 3 3 3 3 3 3 3 3 3 3 3 3 3 2 3 3 4 4 5 6 6 6 7 9 10
6 5 5 4 4 3 3 3 2 2 1 2 2 3 3 3 3 3 3 3 2 2 2 3 3 3 3 3 3 3 3 2 2 3 3 3 4 5 5 6 6 8 10
5 4 4 4 3 3 2 2 1 1 1 2 3 2 2 2 2 3 4 4 4 4 3 3 3 3 4 5 5 5 4 2 2 3 3 3 4 5 5 5 6 7 7
4 4 3 3 2 2 1 1 1 1 1 2 2 2 2 2 2 3 4 4 4 4 4 3 3 3 3 3 3 4 5 6 5 4 3 3 4 4 5 5 6 6 7
3 3 3 2 1 1 0 0 1 1 2 2 2 1 1 2 2 3 4 4 4 4 4 4 3 3 3 2 3 3 3 3 4 4 4 2 3 5 5 6 7 8 6
3 2 2 1 1 0 -0 1 1 1 2 1 1 2 2 2 2 4 4 4 4 4 4 4 3 3 3 3 3 2 3 3 4 4 5 4 4 5 5 5 6 5 5
2 2 2 1 0 -0 1 0 2 2 1 1 1 1 2 2 3 3 4 4 4 4 4 4 3 3 3 3 4 4 3 3 4 4 3 5 4 4 6 5 6 6 6
2 2 1 1 1 1 1 2 1 1 1 1 1 2 2 2 3 4 4 4 5 5 4 3 3 3 4 5 5 4 4 4 4 4 3 4 4 4 6 6 7 6 8
2 1 1 1 1 1 2 1 1 1 1 1 1 2 3 3 3 3 4 5 5 6 5 3 3 3 4 5 5 5 5 5 4 3 3 4 4 5 6 6 7 6 9
1 1 0 0 0 1 1 1 1 1 1 1 2 3 3 2 2 2 3 4 4 5 4 3 3 3 4 5 5 4 5 4 4 3 3 4 5 5 5 6 6 7 8
0 -0 -0 0 1 1 1 1 1 1 1 2 2 2 2 2 2 2 3 3 4 4 4 4 4 4 4 4 4 4 5 5 4 4 4 4 5 5 5 6 5 6 7
-0 -1 0 1 1 0 1 1 1 1 2 2 2 2 2 2 2 2 2 3 4 4 4 4 4 4 4 4 3 2 3 3 4 3 3 3 4 5 6 6 6 6 6
-1 0 0 0 0 0 0 1 0 1 1 1 2 2 2 2 2 2 1 0 2 3 3 3 3 3 3 3 3 2 1 3 4 3 3 4 4 5 5 5 6 5 5
-0 0 0 -0 -0 0 0 0 1 1 1 1 1 1 2 2 2 1 0 -0 0 1 1 1 2 2 2 3 3 3 4 3 4 5 5 5 5 6 5 5 4 4 5
0 -0 -1 -1 -0 -0 0 0 0 1 1 1 1 1 1 1 1 0 -0 -1 -1 -1 -1 -0 0 1 2 3 3 3 4 4 4 5 5 5 5 5 5 5 5 5 5
-0 -1 -1 -0 -0 -0 -0 0 0 0 0 0 1 0 0 0 0 -0 -1 -1 -1 -1 -1 -1 -1 -0 -0 1 2 2 3 4 4 4 4 4 5 5 5 6 5 5 6
-0 -1 -0 -1 -1 -1 -0 0 0 -0 0 0 0 -0 -0 -1 -1 -1 -2 -2 -2 -2 -2 -1 -1 -1 -1 -0 0 1 2 3 4 3 3 4 4 5 5 5 5 5 6
-0 -1 -1 -1 -1 -1 -0 -0 -0 -0 0 0 0 -0 1 -1 -1 -2 -2 -2 -2 -2 -2 -2 -2 -2 -1 -1 -1 0 1 2 4 4 3 3 4 4 5 5 6 6 5
-1 -2 -1 -1 -1 -1 -0 -0 -0 -0 -0 0 -0 -1 -0 -1 -1 -1 -2 -2 -2 -2 -2 -2 -2 -2 -2 -2 -1 -1 0 1 2 4 4 4 4 4 4 5 5 6 5
-2 -2 -2 -1 -1 -1 -1 -1 -1 -0 -0 -0 -1 -1 -1 -1 -1 -2 -2 -2 -2 -2 -2 -2 -2 -2 -2 -2 -1 -1 -0 0 2 3 4 4 3 3 4 4 5 5 5
-2 -2 -2 -1 -1 -1 -1 -1 -1 -0 -1 -0 -1 -1 -1 -1 -1 -2 -3 -3 -3 -3 -2 -2 -2 -2 -2 -2 -1 -1 -0 0 1 2 3 3 3 3 3 4 5 5 5
-2 -2 -2 -1 -2 -1 -1 -1 -1 -1 -1 -0 -1 -1 -1 -2 -2 -3 -3 -3 -3 -3 -3 -2 -2 -2 -2 -1 -0 0 0 1 1 2 3 4 4 4 4 4 5 5 5
-2 -2 -2 -1 -2 -2 -2 -2 -2 -1 -1 -1 -1 -1 -2 -2 -3 -3 -3 -3 -3 -3 -3 -2 -2 -2 -1 0 2 2 1 1 1 2 3 3 4 4 4 4 5 5 5
Height
818 817 815 813 810 808 804 800 797 792 787 782 777 773 769 765 762 758 755 751 749 747 746 744 742 742 739 739 738 738 737 737 732 724 727 728 728 728 729 731 731 731 732
815 813 811 809 806 802 798 794 790 783 779 774 770 766 761 757 753 749 745 743 740 738 736 735 733 733 731 730 729 728 728 729 726 716 720 720 721 722 721 721 722 723 725
812 810 807 804 801 797 792 787 781 776 771 767 763 758 753 749 745 741 738 734 731 728 725 724 722 721 720 720 720 719 719 719 718 713 712 713 713 714 715 713 714 716 717
808 806 803 800 796 791 785 780 775 770 764 759 755 750 746 741 737 733 728 724 721 718 716 714 711 710 709 709 709 709 708 709 709 707 705 706 706 705 707 707 708 708 709
805 802 799 795 790 785 779 774 769 764 759 753 748 744 739 733 728 723 719 714 709 705 703 701 700 699 698 697 697 696 698 700 699 698 697 699 699 699 699 698 701 701 702
802 799 795 790 785 779 773 768 763 758 752 748 742 736 730 724 719 714 709 703 697 691 687 685 684 685 685 685 684 684 683 686 687 689 690 691 690 691 693 694 694 696 698
798 794 790 784 779 774 769 763 758 752 746 741 735 730 723 716 711 704 698 692 686 680 675 671 671 672 674 674 676 676 675 675 676 677 679 682 682 683 686 687 687 688 687
794 790 785 779 774 769 764 758 752 746 741 735 729 722 715 708 702 695 689 682 676 670 666 662 659 661 663 665 667 667 667 668 669 670 672 674 675 677 680 681 682 682 687
790 785 780 775 769 764 759 753 748 742 735 729 721 715 708 701 695 687 680 672 664 657 653 650 650 652 653 656 658 659 660 660 662 663 663 663 666 669 672 675 675 679 680
787 782 777 771 766 760 754 749 743 737 729 723 715 708 701 695 686 679 671 662 652 646 642 639 641 643 646 648 650 652 653 653 655 655 655 655 659 661 665 668 671 674 676
784 778 773 767 761 756 750 744 738 731 724 717 710 702 695 688 681 673 662 651 637 626 625 629 632 637 639 641 643 645 645 648 649 650 652 652 654 656 656 662 666 671 671
780 774 768 762 756 752 745 739 732 726 719 712 704 696 690 683 677 667 655 644 628 613 612 622 629 633 636 638 639 639 640 642 642 647 648 649 651 652 656 660 663 667 669
776 771 765 759 754 748 742 734 727 722 715 708 700 693 686 680 672 664 653 643 632 623 621 624 628 631 633 635 635 635 632 635 638 643 646 648 650 653 656 659 664 668 671
773 768 762 756 750 745 738 731 725 718 712 705 698 692 684 679 672 663 653 644 637 631 629 629 630 631 632 634 634 632 631 632 635 639 643 647 651 653 656 660 664 669 673
771 766 759 753 747 740 734 728 722 717 710 703 697 691 685 679 672 666 657 648 641 637 632 632 632 632 633 634 634 633 632 631 634 638 642 647 652 653 657 663 667 670 673
769 763 757 751 744 738 731 724 720 714 709 704 698 691 686 680 673 666 659 651 645 640 636 635 634 634 633 634 635 635 634 633 634 638 642 646 651 654 658 663 666 670 674
766 761 755 749 742 736 730 723 716 710 707 702 697 691 687 681 674 668 661 655 648 643 640 639 637 635 635 633 634 636 636 637 638 641 644 648 652 656 659 664 668 672 676
763 759 753 747 741 735 729 723 717 711 705 700 695 691 687 681 676 670 664 657 651 647 644 642 639 638 636 635 634 635 637 638 640 643 646 650 653 657 661 665 669 672 676
760 756 750 745 740 733 727 722 717 711 706 701 696 691 688 683 677 671 666 661 657 652 648 645 642 640 637 636 636 636 637 639 641 644 646 649 653 657 661 663 667 671 674
759 754 749 743 738 732 726 722 717 712 707 702 698 694 688 683 677 672 668 664 659 655 651 647 644 641 639 637 636 635 636 637 639 642 645 649 653 656 659 661 665 670 674
757 752 748 743 737 731 726 722 717 712 708 704 700 696 691 686 681 675 670 665 661 657 652 648 644 641 639 637 635 634 634 634 635 640 644 647 651 654 657 660 663 667 673
756 752 747 742 737 731 727 723 718 714 710 705 702 697 692 687 682 676 671 666 661 656 652 648 643 639 637 635 633 632 632 632 633 637 641 645 649 652 656 659 662 666 670
755 751 747 742 738 733 727 723 718 714 710 707 703 698 693 687 682 676 671 665 660 655 650 645 640 636 632 631 629 628 628 629 631 633 636 640 645 649 653 656 659 663 667
754 751 747 743 738 734 729 724 719 715 712 707 702 698 694 689 683 677 671 664 658 652 646 641 636 631 627 623 622 622 622 624 627 630 632 636 640 645 649 653 656 660 664
753 750 747 744 739 735 730 726 720 717 712 708 703 699 695 690 684 677 671 664 657 649 642 635 630 625 619 615 613 614 616 619 623 627 630 633 636 640 645 648 653 657 661
753 750 748 744 741 736 732 728 723 718 714 709 704 701 697 692 685 678 671 664 656 648 640 632 625 618 611 607 604 606 610 615 620 625 629 631 634 638 642 645 649 653 658
Wind_Speed
11 15 18 19 19 21 24 26 28 31 34 35 33 32 31 31 30 30 32 32 30 29 28 29 30 29 28 28 28 28 25 23 14 24 23 23 24 26 30 31 33 31 26
15 17 17 18 22 26 27 29 33 37 34 34 32 31 32 32 31 32 32 28 28 28 28 30 30 28 27 26 26 25 25 25 24 18 22 25 24 24 30 33 35 33 31
16 16 18 23 26 28 32 35 35 35 35 32 31 32 33 32 32 30 31 32 32 32 30 29 30 29 28 28 27 25 24 24 26 27 22 22 22 23 26 33 31 29 28
17 19 23 25 28 31 32 35 35 34 33 33 33 34 32 32 32 34 35 34 33 33 32 32 32 31 30 28 28 29 27 25 24 24 22 18 21 25 28 23 25 33 28
19 21 24 28 30 31 35 35 34 33 32 33 30 32 32 32 32 32 32 33 33 32 33 34 34 34 33 34 29 31 28 25 23 22 21 17 21 19 19 19 24 27 29
20 22 28 30 31 33 35 33 32 31 32 29 32 33 33 33 34 36 37 37 35 34 33 32 35 35 35 35 34 34 30 31 27 22 20 17 21 22 23 22 21 13 6
20 25 27 30 32 32 31 30 30 32 30 31 32 32 33 35 35 36 37 38 34 35 33 32 30 30 28 29 31 30 29 30 29 27 24 27 23 26 23 21 19 17 14
22 24 27 31 29 30 29 29 32 30 31 31 32 33 33 35 34 36 37 38 35 32 31 29 26 26 25 25 27 28 29 28 28 29 17 28 28 23 25 25 26 17 14
24 26 30 31 31 29 29 30 30 30 30 31 32 32 32 35 34 36 37 36 36 35 32 29 26 25 24 25 26 24 24 28 24 20 23 26 24 25 25 19 13 13 3
25 30 32 32 30 29 29 29 29 30 29 29 33 32 32 34 37 37 38 36 33 32 28 25 22 21 22 22 24 22 18 23 19 17 20 21 23 24 28 29 20 19 7
27 31 33 32 30 27 26 29 28 30 29 30 32 32 32 32 30 36 39 42 37 33 25 18 19 19 19 20 21 23 25 23 20 19 20 18 15 18 21 29 24 23 17
30 32 33 33 28 25 28 27 29 27 27 28 28 28 27 24 30 35 41 36 40 18 11 15 16 13 14 15 15 17 18 17 17 17 16 12 14 10 15 23 21 23 18
30 32 33 31 24 25 27 28 27 25 24 24 23 21 24 25 29 35 37 31 30 8 10 8 8 8 9 9 10 9 14 20 18 13 10 14 13 11 11 19 16 15 12
29 30 29 23 26 26 26 23 24 23 24 23 19 20 20 23 26 31 32 25 20 9 4 2 3 3 2 3 4 11 2 10 21 18 16 15 8 13 21 23 18 17 16
27 25 23 24 25 26 24 25 25 25 25 24 22 23 18 21 26 30 30 29 16 15 5 4 4 4 4 4 5 14 3 3 16 18 18 18 19 20 22 20 19 15 10
24 22 24 25 26 24 25 25 23 23 22 22 23 25 23 23 26 27 27 25 22 15 10 7 5 2 0 1 3 8 3 6 11 17 19 23 21 20 18 14 16 16 13
24 23 24 24 24 23 25 22 21 24 22 20 21 21 24 24 25 25 25 24 23 17 13 11 9 9 6 4 2 3 2 6 10 10 16 20 20 18 16 16 11 13 13
25 22 23 23 23 24 22 22 20 18 18 20 23 21 23 24 24 23 23 20 21 22 17 13 11 10 7 7 7 5 4 3 4 7 10 13 14 15 15 13 12 11 13
23 21 24 22 23 25 23 21 19 18 17 17 19 21 19 23 22 21 21 19 16 16 17 16 14 11 10 7 5 6 5 8 6 7 9 11 14 13 14 18 15 13 16
20 24 22 22 23 23 21 19 18 17 16 16 15 20 19 23 22 23 21 20 18 18 18 17 15 12 11 8 6 4 3 12 13 11 12 15 16 17 16 15 18 14 15
23 23 21 21 22 22 19 17 18 16 15 16 16 20 22 20 19 17 20 20 20 20 19 18 16 13 10 10 7 5 4 4 14 17 17 15 17 17 14 12 17 18 18
21 18 20 20 22 21 20 18 17 16 16 16 17 19 21 21 20 21 20 21 22 21 20 19 18 16 12 10 9 8 7 7 7 18 18 17 17 16 15 16 18 19 20
15 18 19 19 21 22 21 20 17 17 16 16 17 19 22 20 19 22 22 23 24 24 23 23 21 19 16 13 11 11 12 11 11 11 20 25 20 18 17 18 17 16 18
13 16 18 18 20 20 21 19 18 17 18 17 17 18 19 21 21 23 25 26 25 26 25 25 23 21 21 16 12 13 15 16 15 12 13 21 22 21 20 18 18 19 20
12 15 17 17 19 19 20 20 19 19 19 18 20 17 18 21 23 24 26 27 28 29 29 29 28 27 23 15 8 12 16 18 19 16 11 19 22 22 21 20 19 19 19
11 14 16 17 18 20 19 19 20 19 20 20 22 18 20 21 23 25 28 29 30 30 32 32 32 31 25 20 6 12 17 19 21 17 14 14 20 20 21 21 22 21 23
Wind_Direction
321 320 319 319 318 317 317 317 316 315 313 312 310 307 302 298 292 287 286 284 274 271 270 269 266 270 263 257 261 258 254 251 257 270 259 259 257 258 263 265 267 265 256
324 320 316 317 321 320 320 318 317 316 316 314 310 302 300 294 288 281 278 280 274 273 273 267 263 265 263 261 256 253 251 250 253 268 263 261 259 256 261 262 256 256 254
326 320 318 321 322 322 320 320 321 320 318 312 305 301 296 293 289 280 283 283 276 274 271 264 261 258 257 257 254 247 248 251 255 258 261 255 253 263 267 269 256 252 251
327 322 319 322 322 323 324 323 323 322 312 307 303 298 292 292 289 285 282 280 277 274 271 266 261 257 254 252 253 250 251 248 248 255 258 246 254 257 258 254 253 247 242
323 320 321 322 323 325 326 324 321 315 309 308 303 301 298 293 288 286 285 281 276 269 264 263 261 257 255 254 244 245 245 240 240 244 250 248 255 249 242 245 233 236 239
322 322 323 324 323 325 325 319 312 309 308 301 301 300 299 294 295 295 291 287 282 273 262 258 251 255 258 264 262 262 241 232 230 233 241 240 245 233 246 245 231 215 225
322 322 324 326 325 322 317 312 311 310 305 303 301 300 296 294 296 296 293 292 289 285 273 258 254 247 258 254 254 261 263 260 252 237 224 235 235 233 232 228 214 197 199
324 326 329 330 320 317 315 315 313 307 305 304 302 299 297 295 297 299 298 297 292 287 282 264 255 251 248 249 245 252 257 263 260 264 242 225 237 232 234 234 218 209 234
329 330 332 329 322 318 316 313 308 306 306 305 303 301 299 299 303 305 303 298 289 279 278 260 251 247 246 242 250 241 249 258 264 252 255 249 236 239 237 242 197 193 186
331 329 331 330 321 316 310 305 308 307 305 306 304 303 302 301 305 304 307 305 297 288 282 251 247 239 238 245 245 249 247 250 254 251 273 228 227 235 226 219 205 214 159
327 328 330 329 326 317 310 310 309 310 309 307 303 301 301 303 312 317 318 312 301 281 256 233 226 240 249 248 248 245 244 253 240 244 248 214 234 239 209 200 203 206 165
328 329 329 330 326 314 314 313 313 312 309 305 303 307 314 316 327 327 326 332 336 327 206 192 221 231 242 250 258 258 247 261 218 222 235 221 237 234 195 199 192 196 174
329 330 330 331 321 320 318 314 314 315 311 307 313 320 324 332 332 336 336 344 345 24 152 189 212 227 243 270 279 299 257 220 206 193 206 225 227 214 193 171 164 170 131
330 331 330 323 322 324 318 316 317 314 312 310 325 328 331 340 344 348 344 344 357 22 79 139 238 261 292 278 18 3 341 209 198 193 197 219 215 179 158 155 151 156 144
332 331 325 324 322 319 319 320 319 317 321 332 335 334 351 342 351 355 354 351 2 1 59 60 64 78 73 74 40 18 87 209 172 186 189 185 183 158 151 166 168 152 137
333 328 328 326 321 318 322 320 325 326 333 337 339 342 349 349 353 358 2 1 3 7 31 16 17 17 127 184 129 90 324 116 139 159 160 163 163 159 157 158 160 159 153
331 325 326 322 319 325 323 323 322 330 339 345 346 360 359 352 353 359 3 5 12 31 21 13 13 1 341 299 251 161 191 114 150 157 157 165 164 160 159 158 154 155 169
334 326 326 318 323 324 322 322 323 330 329 333 350 352 358 355 357 358 1 6 3 11 11 12 10 357 339 309 294 259 217 219 188 158 161 167 169 167 165 165 178 180 169
337 329 328 326 329 327 325 325 330 330 328 334 346 353 1 357 356 0 2 1 355 356 357 357 2 1 357 350 320 284 252 206 206 203 200 191 179 175 186 173 177 181 178
335 334 334 333 330 328 329 333 334 333 334 343 351 343 0 2 357 354 351 355 354 352 350 351 349 352 351 348 328 333 266 229 218 220 212 204 196 183 190 179 172 175 179
336 338 335 336 335 331 331 336 336 337 343 348 346 354 1 354 339 337 351 352 351 350 346 347 342 341 339 335 326 300 280 248 219 214 206 200 201 192 195 195 181 175 176
339 334 333 337 337 335 340 342 340 343 348 345 350 349 353 346 350 348 346 345 347 349 347 343 339 336 329 316 303 289 272 250 205 207 203 198 197 195 200 202 187 187 181
342 337 336 342 341 344 344 345 343 348 345 352 350 345 347 341 348 347 343 343 346 344 346 342 336 333 326 313 291 265 253 245 223 201 196 197 190 197 202 199 194 183 171
337 338 340 345 342 348 347 343 343 346 351 340 341 344 349 352 350 346 342 344 343 341 338 338 336 332 329 316 290 256 238 235 226 207 195 192 188 194 205 201 189 191 180
341 341 346 347 347 349 349 349 346 350 349 348 351 347 355 356 351 347 346 346 343 340 340 343 342 342 339 330 287 233 220 215 216 201 190 197 194 193 197 195 193 189 181
343 344 349 353 355 358 353 350 350 354 351 355 354 12 7 356 352 349 350 349 347 344 345 345 349 351 357 357 323 199 195 194 195 191 187 176 170 171 181 180 175 167 162